[[{"header":{"parameterUnit":"m.s-1","parameterCategory":1,"la1":30.2992,"la2":30.254,"lo1":-89.0895,"lo2":-89.0443,"dy":0.0025,"dx":0.0025,"nx":19,"ny":19,"refTime":"2026-03-12T21:00:00:Z","depth":0,"parameterNumber":2,"parameterNumberName":"U-component_of_WINDS"},"data":[0,0,0,-1.5995,-1.5998,-1.6129,-1.6129,-1.6299,-1.6301,0,0,0,0,0,0,0,0,0,0,0,-1.5958,-1.596,-1.5995,-1.5998,-1.6129,-1.6129,-1.6299,-1.6301,0,0,0,0,0,0,0,0,0,0,0,-1.5958,-1.5959,-1.5961,-1.5999,-1.6129,-1.6129,-1.6299,-1.6199,0,0,0,0,0,0,0,0,0,0,-1.6072,-1.6039,-1.5959,-1.5961,-1.6,-1.6129,-1.6129,-1.6194,-1.6205,-1.6241,0,-1.6273,0,-1.629,-1.6312,-1.6313,0,0,0,-1.5998,-1.603,-1.6064,-1.5961,-1.6001,-1.6128,-1.607,-1.6201,-1.6213,-1.6256,-1.6276,-1.6282,-1.6293,-1.6313,-1.6314,-1.6523,-1.6524,0,0,-1.599,-1.5983,-1.6055,-1.6072,-1.6051,-1.6066,-1.6074,-1.6208,-1.6229,-1.6276,-1.6286,-1.6295,-1.6315,-1.6316,-1.6522,-1.6523,0,0,0,-1.597,-1.5978,-1.6008,-1.6065,-1.6088,-1.6069,-1.6079,-1.6223,-1.6234,-1.6288,-1.6297,-1.6316,-1.6318,-1.6521,-1.6522,-1.6565,0,0,0,-1.5966,-1.5966,-1.6005,-1.6002,-1.6086,-1.6157,-1.6091,-1.6225,-1.624,-1.6296,-1.6316,-1.6319,-1.6519,-1.6521,-1.6562,-1.6587,0,0,0,-1.5949,-1.5964,-1.5984,-1.6001,-1.6057,-1.6155,-1.6174,-1.6228,-1.6246,-1.6313,-1.632,-1.6519,-1.6521,-1.6558,-1.6582,-1.664,0,0,0,-1.593,-1.6021,-1.5984,-1.6089,-1.6056,-1.618,-1.6173,-1.6266,-1.6329,-1.6317,-1.652,-1.6522,-1.6557,-1.6579,-1.6636,-1.6688,-1.6708,0,0,-1.6041,-1.6034,-1.6097,-1.6067,-1.6197,-1.6161,-1.6297,-1.6362,-1.6375,-1.6473,-1.6478,-1.6563,-1.6582,-1.6639,-1.6824,-1.684,0,0,0,-1.6129,-1.6174,-1.621,-1.6269,-1.6319,-1.6365,-1.6409,-1.6433,-1.6516,-1.6424,-1.6599,-1.6611,-1.6645,-1.667,-1.6683,-1.6713,-1.6533,-1.6533,-1.6532,-1.6277,-1.6288,-1.6392,-1.6418,-1.6475,-1.6519,-1.6566,-1.6606,-1.6601,-1.6642,-1.6672,-1.6782,-1.6811,-1.6822,-1.6852,-1.6699,-1.6699,-1.6699,-1.6699,-1.6442,-1.6507,-1.6496,-1.6594,-1.6604,-1.6686,-1.6731,-1.6725,-1.6803,-1.6761,-1.6792,-1.6747,-1.6839,-1.6866,-1.6703,-1.6702,-1.6702,-1.6701,-1.6701,-1.6541,-1.6574,-1.66,-1.6685,-1.6749,-1.6772,-1.6846,-1.6853,-1.6861,-1.6891,-1.6923,-1.6922,-1.6923,-1.6905,-1.6906,-1.6906,-1.6906,-1.6907,-1.6907,-1.6634,-1.6662,-1.6723,-1.6783,-1.6821,-1.6871,-1.6914,-1.6952,-1.6996,-1.6995,-1.6995,-1.6986,-1.6845,-1.681,-1.6913,-1.6912,-1.6911,-1.691,-1.691,-1.6798,-1.6762,-1.6857,-1.6895,-1.6965,-1.7027,-1.7034,-1.711,-1.7142,-1.7178,-1.7162,-1.7056,-1.705,-1.7039,-1.7011,-1.7159,-1.7159,-1.7159,-1.7159,-1.6883,-1.6879,-1.6978,-1.7037,-1.7096,-1.7112,-1.7219,-1.7253,-1.7282,-1.7302,-1.7281,-1.7243,-1.7231,-1.7232,-1.7217,-1.7191,-1.7381,-1.7382,-1.7382,-1.6984,-1.6987,-1.7077,-1.7104,-1.7159,-1.7205,-1.7306,-1.7375,-1.74,-1.7391,-1.7318,-1.7309,-1.7247,-1.7226,-1.7217,-1.7194,-1.7145,0,0]},{"header":{"parameterUnit":"m.s-1","parameterCategory":1,"la1":30.2992,"la2":30.254,"lo1":-89.0895,"lo2":-89.0443,"dy":0.0025,"dx":0.0025,"nx":19,"ny":19,"refTime":"2026-03-12T21:00:00:Z","depth":0,"parameterNumber":3,"parameterNumberName":"V-component_of_WINDS"},"data":[0,0,0,-7.1735,-7.174,-7.1976,-7.1977,-7.229,-7.2293,0,0,0,0,0,0,0,0,0,0,0,-7.1674,-7.1677,-7.1734,-7.174,-7.1976,-7.1977,-7.2289,-7.2293,0,0,0,0,0,0,0,0,0,0,0,-7.1673,-7.1676,-7.1679,-7.1741,-7.1976,-7.1977,-7.2289,-7.2106,0,0,0,0,0,0,0,0,0,0,-7.1874,-7.1829,-7.1675,-7.1679,-7.1743,-7.1976,-7.1977,-7.2097,-7.2117,-7.2188,0,-7.2257,0,-7.228,-7.2315,-7.2316,0,0,0,-7.1732,-7.1812,-7.1867,-7.168,-7.1745,-7.1975,-7.1867,-7.2108,-7.2131,-7.2216,-7.2261,-7.2272,-7.2285,-7.2317,-7.2318,-7.2761,-7.2763,0,0,-7.1719,-7.1721,-7.1851,-7.1883,-7.185,-7.186,-7.1875,-7.2122,-7.2171,-7.2262,-7.2279,-7.229,-7.2319,-7.2321,-7.2759,-7.2761,0,0,0,-7.1687,-7.1713,-7.1761,-7.187,-7.1912,-7.1867,-7.1884,-7.216,-7.2175,-7.2283,-7.2294,-7.2321,-7.2325,-7.2756,-7.276,-7.2883,0,0,0,-7.1679,-7.1694,-7.1756,-7.1759,-7.1908,-7.204,-7.1917,-7.2158,-7.2186,-7.2292,-7.2321,-7.2328,-7.2753,-7.2758,-7.2874,-7.2941,0,0,0,-7.1655,-7.1691,-7.1729,-7.1759,-7.1861,-7.2035,-7.2065,-7.2164,-7.2194,-7.2316,-7.2329,-7.2751,-7.2757,-7.2866,-7.2927,-7.3058,0,0,0,-7.163,-7.1834,-7.1731,-7.1962,-7.1859,-7.2111,-7.2064,-7.225,-7.237,-7.2323,-7.2754,-7.2759,-7.2863,-7.2919,-7.3049,-7.3169,-7.3219,0,0,-7.1888,-7.1865,-7.2001,-7.1915,-7.2186,-7.2074,-7.2362,-7.2469,-7.2477,-7.2665,-7.2676,-7.2877,-7.2926,-7.3056,-7.3497,-7.3537,0,0,0,-7.2083,-7.2181,-7.2252,-7.2368,-7.2455,-7.2535,-7.2598,-7.2637,-7.2796,-7.2575,-7.2959,-7.2988,-7.3064,-7.3121,-7.3155,-7.322,-7.2786,-7.2785,-7.2784,-7.2451,-7.2453,-7.2677,-7.2707,-7.2819,-7.2882,-7.2972,-7.3034,-7.3002,-7.3092,-7.3148,-7.3416,-7.3483,-7.3509,-7.3576,-7.3211,-7.3212,-7.3212,-7.3212,-7.2829,-7.2968,-7.2921,-7.3122,-7.3121,-7.3289,-7.3356,-7.3327,-7.3482,-7.3374,-7.3441,-7.3324,-7.3552,-7.3611,-7.3222,-7.322,-7.3219,-7.3218,-7.3217,-7.3071,-7.3138,-7.3183,-7.3349,-7.3476,-7.3497,-7.3649,-7.3642,-7.3636,-7.3702,-7.376,-7.3758,-7.3755,-7.373,-7.3731,-7.3732,-7.3733,-7.3734,-7.3734,-7.3304,-7.3351,-7.3481,-7.359,-7.3663,-7.3757,-7.3821,-7.3891,-7.3966,-7.3949,-7.3949,-7.3908,-7.3575,-7.3491,-7.3749,-7.3746,-7.3744,-7.3743,-7.3742,-7.3687,-7.36,-7.38,-7.3873,-7.4,-7.4126,-7.4115,-7.4259,-7.4315,-7.439,-7.4333,-7.4088,-7.4063,-7.4037,-7.3967,-7.4333,-7.4333,-7.4333,-7.4333,-7.3892,-7.3878,-7.4082,-7.4198,-7.4311,-7.4322,-7.4546,-7.4596,-7.4634,-7.4668,-7.4614,-7.4521,-7.4494,-7.4486,-7.4449,-7.4384,-7.4848,-7.4848,-7.4849,-7.4127,-7.4125,-7.4319,-7.4357,-7.4455,-7.4539,-7.4749,-7.4882,-7.4906,-7.4869,-7.4695,-7.4673,-7.4524,-7.4475,-7.4435,-7.4378,-7.426,0,0]}]]